| time (UTC) | temp C | wind direction | speed KPH | gust KPH | rain 1hr cm | rain 24hr cm | rain mn cm | humidity % | barometer mb |
| 20260901054540 | 23 | 29 | 0.0 | 0.0 | 0.00 | 0.00 | 0.00 | 43 | 1016.1 |
| 20260901053050 | 23 | 72 | 0.0 | 0.0 | 0.00 | 0.00 | 0.00 | 42 | 1016.3 |
| 20260901051538 | 24 | 71 | 0.0 | 3.2 | 0.00 | 0.00 | 0.00 | 41 | 1016.2 |
| 20260901050033 | 23 | 88 | 0.0 | 0.0 | 0.00 | 0.00 | 0.00 | 44 | 1016.3 |
| 20260901044537 | 23 | 89 | 0.0 | 0.0 | 0.00 | 0.00 | 0.00 | 44 | 1016.3 |
| 20260901043028 | 23 | 88 | 0.0 | 0.0 | 0.00 | 0.00 | 0.00 | 46 | 1016.7 |
| 20260901041523 | 23 | 359 | 0.0 | 0.0 | 0.00 | 0.00 | 0.00 | 46 | 1016.7 |
| 20260901040020 | 23 | 329 | 0.0 | 0.0 | 0.00 | 0.00 | 0.00 | 46 | 1016.8 |
| 20260901034532 | 23 | 329 | 0.0 | 0.0 | 0.00 | 0.00 | 0.00 | 46 | 1016.9 |
| 20260901033016 | 23 | 329 | 0.0 | 0.0 | 0.00 | 0.00 | 0.00 | 45 | 1016.8 |
| 20260901031516 | 23 | 329 | 0.0 | 0.0 | 0.00 | 0.00 | 0.00 | 44 | 1016.8 |
| 20260901030013 | 23 | 329 | 0.0 | 0.0 | 0.00 | 0.00 | 0.00 | 44 | 1017.0 |
| 20260901024512 | 23 | 328 | 0.0 | 0.0 | 0.00 | 0.00 | 0.00 | 42 | 1016.9 |
| 20260901023009 | 23 | 328 | 0.0 | 0.0 | 0.00 | 0.00 | 0.00 | 40 | 1017.0 |
| 20260901021512 | 23 | 328 | 0.0 | 1.6 | 0.00 | 0.00 | 0.00 | 39 | 1016.9 |
| 20260901020008 | 23 | 328 | 0.0 | 0.0 | 0.00 | 0.00 | 0.00 | 45 | 1016.8 |
| 20260901014505 | 24 | 328 | 0.0 | 0.0 | 0.00 | 0.00 | 0.00 | 50 | 1016.7 |
| 20260901013003 | 24 | 328 | 0.0 | 0.0 | 0.00 | 0.00 | 0.00 | 52 | 1016.5 |
| 20260901011503 | 25 | 328 | 0.0 | 0.0 | 0.00 | 0.00 | 0.00 | 54 | 1016.5 |
| 20260901010059 | 25 | 329 | 0.0 | 0.0 | 0.00 | 0.00 | 0.00 | 57 | 1016.4 |
| 20260901004615 | 25 | 329 | 0.0 | 0.0 | 0.00 | 0.00 | 0.00 | 58 | 1016.3 |
| 20260901003056 | 26 | 328 | 0.0 | 0.0 | 0.00 | 0.00 | 0.00 | 60 | 1016.2 |
| 20260901001558 | 26 | 328 | 0.0 | 0.0 | 0.00 | 0.00 | 0.00 | 60 | 1016.2 |
| 20260831234549 | 26 | 328 | 0.0 | 0.0 | 0.00 | 0.00 | 0.00 | 60 | 1016.3 |
| 20260831233047 | 26 | 328 | 0.0 | 0.0 | 0.00 | 0.00 | 0.00 | 60 | 1016.2 |
| 20260831231546 | 27 | 328 | 0.0 | 1.6 | 0.00 | 0.00 | 0.00 | 59 | 1016.2 |
| 20260831230044 | 28 | 328 | 0.0 | 3.2 | 0.00 | 0.00 | 0.00 | 56 | 1016.2 |
| 20260831224539 | 28 | 337 | 1.6 | 4.8 | 0.00 | 0.00 | 0.00 | 54 | 1016.4 |
| 20260831223037 | 28 | 323 | 0.0 | 4.8 | 0.00 | 0.00 | 0.00 | 54 | 1016.6 |
| 20260831221538 | 28 | 182 | 0.0 | 0.0 | 0.00 | 0.00 | 0.00 | 55 | 1016.6 |
| 20260831220033 | 28 | 177 | 0.0 | 0.0 | 0.00 | 0.00 | 0.00 | 55 | 1016.7 |
| 20260831214535 | 28 | 177 | 0.0 | 3.2 | 0.00 | 0.00 | 0.00 | 53 | 1016.6 |
| 20260831213032 | 28 | 128 | 0.0 | 0.0 | 0.00 | 0.00 | 0.00 | 54 | 1016.6 |
| 20260831211528 | 28 | 128 | 0.0 | 0.0 | 0.00 | 0.00 | 0.00 | 56 | 1016.7 |
| 20260831210026 | 28 | 128 | 0.0 | 0.0 | 0.00 | 0.00 | 0.00 | 55 | 1016.9 |
| 20260831204524 | 28 | 127 | 0.0 | 0.0 | 0.00 | 0.00 | 0.00 | 55 | 1016.8 |
| 20260831203021 | 28 | 128 | 0.0 | 0.0 | 0.00 | 0.00 | 0.00 | 55 | 1016.7 |
| 20260831201520 | 28 | 131 | 0.0 | 3.2 | 0.00 | 0.00 | 0.00 | 53 | 1016.8 |
| 20260831200050 | 28 | 135 | 0.0 | 3.2 | 0.00 | 0.00 | 0.00 | 53 | 1016.9 |
| 20260831194515 | 29 | 131 | 0.0 | 1.6 | 0.00 | 0.00 | 0.00 | 52 | 1016.8 |
| 20260831193019 | 30 | 124 | 1.6 | 4.8 | 0.00 | 0.00 | 0.00 | 50 | 1017.0 |
| 20260831191510 | 30 | 145 | 0.0 | 4.8 | 0.00 | 0.00 | 0.00 | 51 | 1017.3 |
| 20260831190020 | 30 | 150 | 0.0 | 4.8 | 0.00 | 0.00 | 0.00 | 50 | 1017.4 |
| 20260831184506 | 30 | 329 | 0.0 | 6.4 | 0.00 | 0.00 | 0.00 | 50 | 1017.6 |
| 20260831183005 | 30 | 320 | 3.2 | 6.4 | 0.00 | 0.00 | 0.00 | 50 | 1017.5 |
| 20260831181503 | 29 | 181 | 3.2 | 6.4 | 0.00 | 0.00 | 0.00 | 51 | 1017.6 |
| 20260831180100 | 29 | 128 | 1.6 | 6.4 | 0.00 | 0.00 | 0.00 | 52 | 1017.5 |
| 20260831174621 | 29 | 138 | 0.0 | 6.4 | 0.00 | 0.00 | 0.00 | 51 | 1017.7 |
| 20260831173056 | 30 | 166 | 3.2 | 9.7 | 0.00 | 0.00 | 0.00 | 50 | 1017.8 |
| 20260831171553 | 30 | 129 | 1.6 | 6.4 | 0.00 | 0.00 | 0.00 | 49 | 1017.8 |
| 20260831170055 | 31 | 146 | 1.6 | 4.8 | 0.00 | 0.00 | 0.00 | 48 | 1017.8 |
| 20260831164553 | 30 | 69 | 1.6 | 9.7 | 0.00 | 0.00 | 0.00 | 46 | 1017.9 |
| 20260831163041 | 29 | 300 | 3.2 | 6.4 | 0.00 | 0.00 | 0.00 | 31 | 1018.3 |
| 20260831161538 | 29 | 234 | 3.2 | 9.7 | 0.00 | 0.00 | 0.00 | 32 | 1018.5 |
| 20260831160033 | 28 | 299 | 1.6 | 11.3 | 0.00 | 0.00 | 0.00 | 35 | 1018.5 |
| 20260831154531 | 27 | 165 | 0.0 | 9.7 | 0.00 | 0.00 | 0.00 | 37 | 1018.3 |
| 20260831153029 | 27 | 153 | 4.8 | 12.9 | 0.00 | 0.00 | 0.00 | 37 | 1018.2 |
| 20260831151527 | 27 | 264 | 4.8 | 12.9 | 0.00 | 0.00 | 0.00 | 36 | 1018.2 |
| 20260831150024 | 27 | 286 | 3.2 | 17.7 | 0.00 | 0.00 | 0.00 | 34 | 1018.2 |
| 20260831144517 | 27 | 143 | 0.0 | 8.0 | 0.00 | 0.00 | 0.00 | 37 | 1018.2 |
| 20260831143015 | 26 | 277 | 3.2 | 12.9 | 0.00 | 0.00 | 0.00 | 38 | 1018.3 |
| 20260831141511 | 26 | 287 | 3.2 | 11.3 | 0.00 | 0.00 | 0.00 | 39 | 1018.2 |
| 20260831140007 | 26 | 308 | 4.8 | 11.3 | 0.00 | 0.00 | 0.00 | 40 | 1018.2 |
| 20260831134516 | 25 | 129 | 1.6 | 12.9 | 0.00 | 0.00 | 0.00 | 41 | 1018.3 |
| 20260831133011 | 25 | 154 | 1.6 | 9.7 | 0.00 | 0.00 | 0.00 | 41 | 1018.2 |
| 20260831131501 | 25 | 241 | 4.8 | 16.1 | 0.00 | 0.00 | 0.00 | 40 | 1018.3 |
| 20260831130055 | 24 | 275 | 1.6 | 12.9 | 0.00 | 0.00 | 0.00 | 42 | 1018.2 |
| 20260831124551 | 24 | 210 | 1.6 | 16.1 | 0.00 | 0.00 | 0.00 | 42 | 1018.1 |
| 20260831123046 | 23 | 193 | 6.4 | 14.5 | 0.00 | 0.00 | 0.00 | 44 | 1018.2 |
| 20260831121545 | 22 | 217 | 3.2 | 9.7 | 0.00 | 0.00 | 0.00 | 45 | 1017.9 |
| 20260831120042 | 22 | 144 | 3.2 | 9.7 | 0.00 | 0.00 | 0.00 | 46 | 1017.9 |
| 20260831114535 | 22 | 146 | 1.6 | 8.0 | 0.00 | 0.00 | 0.00 | 46 | 1017.9 |
| 20260831113033 | 22 | 166 | 1.6 | 6.4 | 0.00 | 0.00 | 0.00 | 46 | 1017.7 |
| 20260831111529 | -17 | 0.0 | 0.0 | 0.00 | 0.00 | 0.00 | 1017.6 | ||
| 20260831110024 | -17 | 0.0 | 0.0 | 0.00 | 0.00 | 0.00 | 1017.4 | ||
| 20260831104529 | -17 | 0.0 | 0.0 | 0.00 | 0.00 | 0.00 | 1017.1 | ||
| 20260831103022 | 21 | 4 | 0.0 | 0.0 | 0.00 | 0.00 | 0.00 | 48 | 1017.1 |
| 20260831101516 | 20 | 273 | 0.0 | 0.0 | 0.00 | 0.00 | 0.00 | 47 | 1016.9 |
| 20260831100014 | 20 | 273 | 0.0 | 0.0 | 0.00 | 0.00 | 0.00 | 47 | 1017.1 |
| 20260831094520 | 21 | 359 | 0.0 | 0.0 | 0.00 | 0.00 | 0.00 | 47 | 1017.1 |
| 20260831093015 | 21 | 351 | 0.0 | 0.0 | 0.00 | 0.00 | 0.00 | 48 | 1017.1 |
| 20260831091518 | 20 | 18 | 0.0 | 0.0 | 0.00 | 0.00 | 0.00 | 47 | 1017.0 |
| 20260831090004 | 20 | 36 | 0.0 | 0.0 | 0.00 | 0.00 | 0.00 | 47 | 1016.9 |
| 20260831084511 | 20 | 35 | 0.0 | 0.0 | 0.00 | 0.00 | 0.00 | 47 | 1017.0 |
| 20260831083001 | 20 | 13 | 0.0 | 0.0 | 0.00 | 0.00 | 0.00 | 48 | 1016.8 |
| 20260831081558 | 20 | 141 | 0.0 | 0.0 | 0.00 | 0.00 | 0.00 | 47 | 1016.7 |
| 20260831080117 | 20 | 146 | 0.0 | 0.0 | 0.00 | 0.00 | 0.00 | 46 | 1016.5 |
| 20260831074552 | 20 | 146 | 0.0 | 0.0 | 0.00 | 0.00 | 0.00 | 46 | 1016.5 |
| 20260831073048 | 20 | 146 | 0.0 | 0.0 | 0.00 | 0.00 | 0.00 | 45 | 1016.6 |
| 20260831071548 | 20 | 146 | 0.0 | 0.0 | 0.00 | 0.00 | 0.00 | 44 | 1016.6 |
| 20260831070041 | 21 | 145 | 0.0 | 0.0 | 0.00 | 0.00 | 0.00 | 44 | 1016.7 |
| 20260831064548 | 21 | 275 | 0.0 | 0.0 | 0.00 | 0.00 | 0.00 | 44 | 1016.7 |
| 20260831063053 | 21 | 274 | 0.0 | 0.0 | 0.00 | 0.00 | 0.00 | 44 | 1016.8 |
| 20260831061535 | 21 | 274 | 0.0 | 0.0 | 0.00 | 0.00 | 0.00 | 44 | 1016.9 |
| 20260831060032 | 21 | 275 | 0.0 | 0.0 | 0.00 | 0.00 | 0.00 | 44 | 1016.9 |